Погода в Куганаволоке

Россия / Республика Карелия     62°14′10″N   36°53′08″E
темп.,
°C
ветер,
м/с
пор.,
м/с
влажн.,
%
обл.,
%
осадки,
мм/ч
давл.,
гПа
погр.,
м
18 января, пн
пн1800:00−10зюз3697100 0.1 1011139
03:00−10зюз349698 0.3 1012119
06:00−11зюз349682 0.1 1011108
09:00−13зюз339886 0.2 101261
12:00−12зюз3597100 0.0 1013137
15:00−11зюз3697100 0.1 1013176
18:00−11зюз3796100 0.1 1013193
21:00−9зюз3697100 0.1 1013154
19 января, вт
вт1900:00−9зюз3696100 0.1 1013170
03:00−9зюз3896100 0.1 1013203
06:00−9юз489599 0.1 1012254
09:00−9зюз4895100 0.2 1012234
12:00−9зюз489597 0.1 1011264
15:00−8юз489597 0.2 1011269
18:00−9юз479596 0.2 1011202
21:00−9юз369696 0.4 1011164
20 января, ср
ср2000:00−9зюз359690 0.1 1011135
03:00−9зюз369693 0.3 1011151
06:00−10зюз249699 0.2 1011115
09:00−10зюз239699 0.4 101175
12:00−9з249694 0.2 1012176
15:00−9з229698 0.4 101341
18:00−11з119796 0.2 101321
21:00−11юз119794 0.4 101323
21 января, чт
чт2100:00−12ююз119693 0.2 101322
03:00−13ю119695 0.3 101325
06:00−14в349693 0.1 101199
09:00−15в489695 0.2 1009231
12:00−17в61096100 0.1 1007270
15:00−19всв61196100 0.1 1006272
18:00−21всв61195100 0.1 1007317
21:00−24всв5109599 0.1 1009264
22 января, пт
пт2200:00−27св599468 0.0 1011248
03:00−29св489484 0.0 1013228
06:00−30всв499542 0.0 1015223
09:00−30всв489533 0.0 1016215
12:00−29всв379528 0.0 1018224
15:00−28всв479452 0.0 1019234
18:00−29в499584 0.0 1021235
21:00−29в589491 0.0 1021249